Time,TemperatureF,DewpointF,PressureIn,WindDirection,WindDirectionDegrees,WindSpeedMPH,WindSpeedGustMPH,Humidity,HourlyPrecipIn,Conditions,Clouds,dailyrainin,SoftwareType,DateUTC
2013-01-24 00:01:00,61.0,53.0,28.73,WSW,247,2.1,-999.0,74,0.00,,,0.00,Rainwise IP-100,2013-01-24 06:01:00,
2013-01-24 00:06:00,60.9,53.0,28.73,West,270,2.6,-999.0,74,0.00,,,0.00,Rainwise IP-100,2013-01-24 06:06:00,
2013-01-24 00:11:00,60.8,53.5,28.72,West,270,2.8,-999.0,75,0.00,,,0.00,Rainwise IP-100,2013-01-24 06:11:00,
2013-01-24 00:16:00,60.7,53.0,28.73,SW,225,1.9,-999.0,75,0.00,,,0.00,Rainwise IP-100,2013-01-24 06:16:00,
2013-01-24 00:21:00,60.6,53.0,28.72,WSW,247,1.2,-999.0,75,0.00,,,0.00,Rainwise IP-100,2013-01-24 06:21:00,
2013-01-24 00:26:00,60.5,53.0,28.72,WSW,247,1.6,-999.0,76,0.00,,,0.00,Rainwise IP-100,2013-01-24 06:26:00,
2013-01-24 00:31:00,60.4,53.0,28.72,WSW,247,2.3,-999.0,76,0.00,,,0.00,Rainwise IP-100,2013-01-24 06:31:00,
2013-01-24 00:36:00,60.4,53.0,28.72,WSW,247,1.6,-999.0,76,0.00,,,0.00,Rainwise IP-100,2013-01-24 06:36:00,
2013-01-24 00:41:00,60.2,53.0,28.73,WSW,247,3.3,-999.0,76,0.00,,,0.00,Rainwise IP-100,2013-01-24 06:41:00,
2013-01-24 00:46:00,60.0,53.0,28.72,West,270,4.9,-999.0,77,0.00,,,0.00,Rainwise IP-100,2013-01-24 06:46:00,
2013-01-24 00:51:00,59.8,53.0,28.72,SW,225,4.4,-999.0,77,0.00,,,0.00,Rainwise IP-100,2013-01-24 06:51:00,
2013-01-24 00:56:00,59.8,53.5,28.72,West,270,1.6,-999.0,78,0.00,,,0.00,Rainwise IP-100,2013-01-24 06:56:00,
2013-01-24 01:00:00,59.9,53.5,28.72,West,270,4.9,-999.0,78,0.00,,,0.00,Rainwise IP-100,2013-01-24 07:00:00,
2013-01-24 01:05:00,60.0,53.5,28.72,West,270,3.5,-999.0,78,0.00,,,0.00,Rainwise IP-100,2013-01-24 07:05:00,
2013-01-24 01:10:00,60.0,53.5,28.72,SW,225,3.3,-999.0,78,0.00,,,0.00,Rainwise IP-100,2013-01-24 07:10:00,
2013-01-24 01:15:00,59.8,53.5,28.72,WSW,247,2.8,-999.0,78,0.00,,,0.00,Rainwise IP-100,2013-01-24 07:15:00,
2013-01-24 01:20:00,59.4,53.0,28.73,West,270,3.7,-999.0,78,0.00,,,0.00,Rainwise IP-100,2013-01-24 07:20:00,
2013-01-24 01:25:00,59.1,53.0,28.73,West,270,1.9,-999.0,79,0.00,,,0.00,Rainwise IP-100,2013-01-24 07:25:00,
2013-01-24 01:30:00,58.9,53.0,28.73,WSW,247,4.0,-999.0,79,0.00,,,0.00,Rainwise IP-100,2013-01-24 07:30:00,
2013-01-24 01:35:00,58.8,53.0,28.73,WSW,247,5.4,-999.0,80,0.00,,,0.00,Rainwise IP-100,2013-01-24 07:35:00,
2013-01-24 01:40:00,58.9,53.0,28.73,SW,225,4.2,-999.0,80,0.00,,,0.00,Rainwise IP-100,2013-01-24 07:40:00,
2013-01-24 01:45:00,59.0,53.0,28.73,WSW,247,3.0,-999.0,80,0.00,,,0.00,Rainwise IP-100,2013-01-24 07:45:00,
2013-01-24 01:50:00,59.1,53.0,28.73,WSW,247,3.0,-999.0,80,0.00,,,0.00,Rainwise IP-100,2013-01-24 07:50:00,
2013-01-24 01:55:00,59.2,53.0,28.72,WSW,247,2.6,-999.0,80,0.00,,,0.00,Rainwise IP-100,2013-01-24 07:55:00,
2013-01-24 02:00:00,59.0,53.0,28.72,WSW,247,2.3,-999.0,80,0.00,,,0.00,Rainwise IP-100,2013-01-24 08:00:00,
2013-01-24 02:05:00,58.8,53.0,28.72,WSW,247,3.3,-999.0,80,0.00,,,0.00,Rainwise IP-100,2013-01-24 08:05:00,
2013-01-24 02:10:00,58.7,53.5,28.73,SW,225,1.9,-999.0,81,0.00,,,0.00,Rainwise IP-100,2013-01-24 08:10:00,
2013-01-24 02:15:00,58.5,53.5,28.72,SSW,202,1.6,-999.0,82,0.00,,,0.00,Rainwise IP-100,2013-01-24 08:15:00,
2013-01-24 02:20:00,58.3,53.0,28.73,SSW,202,2.8,-999.0,82,0.00,,,0.00,Rainwise IP-100,2013-01-24 08:20:00,
2013-01-24 02:25:00,58.1,53.0,28.73,SSW,202,4.4,-999.0,82,0.00,,,0.00,Rainwise IP-100,2013-01-24 08:25:00,
2013-01-24 02:30:00,58.0,53.5,28.73,SW,225,3.0,-999.0,83,0.00,,,0.00,Rainwise IP-100,2013-01-24 08:30:00,
2013-01-24 02:35:00,57.9,53.5,28.72,SW,225,2.8,-999.0,83,0.00,,,0.00,Rainwise IP-100,2013-01-24 08:35:00,
2013-01-24 02:40:00,58.0,53.5,28.72,SSW,202,1.9,-999.0,83,0.00,,,0.00,Rainwise IP-100,2013-01-24 08:40:00,
2013-01-24 02:45:00,58.0,53.5,28.73,WSW,247,1.6,-999.0,84,0.00,,,0.00,Rainwise IP-100,2013-01-24 08:45:00,
2013-01-24 02:50:00,58.0,53.5,28.73,SSW,202,4.7,-999.0,84,0.00,,,0.00,Rainwise IP-100,2013-01-24 08:50:00,
2013-01-24 02:55:00,58.1,53.5,28.73,SSW,202,4.0,-999.0,84,0.00,,,0.00,Rainwise IP-100,2013-01-24 08:55:00,
2013-01-24 03:00:00,58.2,53.5,28.73,South,180,1.6,-999.0,84,0.00,,,0.00,Rainwise IP-100,2013-01-24 09:00:00,
2013-01-24 03:05:00,58.2,53.5,28.73,SSW,202,2.6,-999.0,84,0.00,,,0.00,Rainwise IP-100,2013-01-24 09:05:00,
2013-01-24 03:10:00,58.1,53.5,28.73,South,180,1.6,-999.0,84,0.00,,,0.00,Rainwise IP-100,2013-01-24 09:10:00,
2013-01-24 03:15:00,58.1,53.5,28.73,South,180,1.4,-999.0,84,0.00,,,0.00,Rainwise IP-100,2013-01-24 09:15:00,
2013-01-24 03:20:00,58.0,54.0,28.73,SW,225,2.1,-999.0,85,0.00,,,0.00,Rainwise IP-100,2013-01-24 09:20:00,
2013-01-24 03:25:00,57.9,54.0,28.73,WSW,247,0.0,-999.0,85,0.00,,,0.00,Rainwise IP-100,2013-01-24 09:25:00,
2013-01-24 03:30:00,57.7,53.5,28.73,WSW,247,0.0,-999.0,85,0.00,,,0.00,Rainwise IP-100,2013-01-24 09:30:00,
2013-01-24 03:35:00,57.6,53.5,28.74,West,270,3.0,-999.0,85,0.00,,,0.00,Rainwise IP-100,2013-01-24 09:35:00,
2013-01-24 03:40:00,57.8,54.0,28.73,WSW,247,1.4,-999.0,85,0.00,,,0.00,Rainwise IP-100,2013-01-24 09:40:00,
2013-01-24 03:45:00,57.8,54.0,28.73,WSW,247,1.4,-999.0,85,0.00,,,0.00,Rainwise IP-100,2013-01-24 09:45:00,
2013-01-24 03:50:00,57.6,53.5,28.73,WSW,247,1.6,-999.0,85,0.00,,,0.00,Rainwise IP-100,2013-01-24 09:50:00,
2013-01-24 03:55:00,57.4,53.5,28.74,West,270,0.0,-999.0,86,0.00,,,0.00,Rainwise IP-100,2013-01-24 09:55:00,
2013-01-24 04:00:00,57.1,53.0,28.73,West,270,0.0,-999.0,86,0.00,,,0.00,Rainwise IP-100,2013-01-24 10:00:00,
2013-01-24 04:05:00,56.7,53.0,28.73,West,270,0.0,-999.0,87,0.00,,,0.00,Rainwise IP-100,2013-01-24 10:05:00,
2013-01-24 04:10:00,56.3,53.0,28.73,SW,225,0.0,-999.0,88,0.00,,,0.00,Rainwise IP-100,2013-01-24 10:10:00,
2013-01-24 04:15:00,56.2,53.0,28.73,SW,225,0.0,-999.0,89,0.00,,,0.00,Rainwise IP-100,2013-01-24 10:15:00,
2013-01-24 04:20:00,56.2,53.0,28.73,SW,225,0.0,-999.0,89,0.00,,,0.00,Rainwise IP-100,2013-01-24 10:20:00,
2013-01-24 04:25:00,56.2,53.0,28.73,SW,225,1.4,-999.0,89,0.00,,,0.00,Rainwise IP-100,2013-01-24 10:25:00,
2013-01-24 04:30:00,55.9,53.0,28.73,SW,225,0.0,-999.0,89,0.00,,,0.00,Rainwise IP-100,2013-01-24 10:30:00,
2013-01-24 04:35:00,55.3,52.0,28.73,SW,225,0.0,-999.0,89,0.00,,,0.00,Rainwise IP-100,2013-01-24 10:35:00,
2013-01-24 04:40:00,54.1,50.5,28.73,SW,225,0.0,-999.0,89,0.00,,,0.00,Rainwise IP-100,2013-01-24 10:40:00,
2013-01-24 04:45:00,53.0,50.0,28.74,SW,225,0.0,-999.0,90,0.00,,,0.00,Rainwise IP-100,2013-01-24 10:45:00,
2013-01-24 04:50:00,52.5,50.5,28.74,SW,225,0.0,-999.0,92,0.00,,,0.00,Rainwise IP-100,2013-01-24 10:50:00,
2013-01-24 04:55:00,52.3,50.0,28.74,SW,225,0.0,-999.0,93,0.00,,,0.00,Rainwise IP-100,2013-01-24 10:55:00,
2013-01-24 05:00:00,52.2,50.5,28.73,SW,225,0.0,-999.0,94,0.00,,,0.00,Rainwise IP-100,2013-01-24 11:00:00,
2013-01-24 05:05:00,51.9,50.5,28.74,SW,225,0.0,-999.0,95,0.00,,,0.00,Rainwise IP-100,2013-01-24 11:05:00,
2013-01-24 05:10:00,51.3,50.0,28.73,SW,225,0.0,-999.0,94,0.00,,,0.00,Rainwise IP-100,2013-01-24 11:10:00,
2013-01-24 05:15:00,50.9,50.0,28.73,SW,225,0.0,-999.0,94,0.00,,,0.00,Rainwise IP-100,2013-01-24 11:15:00,
2013-01-24 05:20:00,50.4,49.0,28.73,SW,225,0.0,-999.0,95,0.00,,,0.00,Rainwise IP-100,2013-01-24 11:20:00,
2013-01-24 05:25:00,49.9,48.0,28.73,SW,225,0.0,-999.0,94,0.00,,,0.00,Rainwise IP-100,2013-01-24 11:25:00,
2013-01-24 05:30:00,49.7,48.0,28.73,SW,225,0.0,-999.0,95,0.00,,,0.00,Rainwise IP-100,2013-01-24 11:30:00,
2013-01-24 05:35:00,49.7,49.0,28.74,SW,225,0.0,-999.0,96,0.00,,,0.00,Rainwise IP-100,2013-01-24 11:35:00,
2013-01-24 05:40:00,49.8,49.0,28.73,SW,225,0.0,-999.0,97,0.00,,,0.00,Rainwise IP-100,2013-01-24 11:40:00,
2013-01-24 05:45:00,49.6,49.0,28.73,SW,225,0.0,-999.0,97,0.00,,,0.00,Rainwise IP-100,2013-01-24 11:45:00,
2013-01-24 05:50:00,49.2,48.0,28.73,SW,225,0.0,-999.0,97,0.00,,,0.00,Rainwise IP-100,2013-01-24 11:50:00,
2013-01-24 05:55:00,49.5,49.0,28.74,SW,225,0.0,-999.0,97,0.00,,,0.00,Rainwise IP-100,2013-01-24 11:55:00,
2013-01-24 06:00:00,49.9,49.0,28.73,SW,225,1.9,-999.0,98,0.00,,,0.00,Rainwise IP-100,2013-01-24 12:00:00,
2013-01-24 06:05:00,49.8,49.0,28.73,SW,225,0.0,-999.0,98,0.00,,,0.00,Rainwise IP-100,2013-01-24 12:05:00,
2013-01-24 06:10:00,49.3,48.0,28.73,SW,225,0.0,-999.0,98,0.00,,,0.00,Rainwise IP-100,2013-01-24 12:10:00,
2013-01-24 06:15:00,49.2,48.0,28.74,SW,225,0.0,-999.0,98,0.00,,,0.00,Rainwise IP-100,2013-01-24 12:15:00,
2013-01-24 06:20:00,49.9,49.0,28.74,SW,225,0.0,-999.0,98,0.00,,,0.00,Rainwise IP-100,2013-01-24 12:20:00,
2013-01-24 06:25:00,50.4,50.5,28.73,SW,225,0.0,-999.0,99,0.00,,,0.00,Rainwise IP-100,2013-01-24 12:25:00,
2013-01-24 06:30:00,50.5,50.5,28.73,SSE,157,1.4,-999.0,99,0.00,,,0.00,Rainwise IP-100,2013-01-24 12:30:00,
2013-01-24 06:35:00,51.0,51.0,28.74,SSE,157,1.6,-999.0,99,0.00,,,0.00,Rainwise IP-100,2013-01-24 12:35:00,
2013-01-24 06:40:00,51.5,52.0,28.73,SSE,157,2.3,-999.0,99,0.00,,,0.00,Rainwise IP-100,2013-01-24 12:40:00,
2013-01-24 06:45:00,51.7,52.0,28.73,SSE,157,1.9,-999.0,99,0.00,,,0.00,Rainwise IP-100,2013-01-24 12:45:00,
2013-01-24 06:50:00,51.7,52.0,28.73,SSE,157,3.3,-999.0,99,0.00,,,0.00,Rainwise IP-100,2013-01-24 12:50:00,
2013-01-24 06:55:00,51.8,52.0,28.73,SSE,157,1.2,-999.0,99,0.00,,,0.00,Rainwise IP-100,2013-01-24 12:55:00,
2013-01-24 07:00:00,51.8,52.0,28.74,SSE,157,0.0,-999.0,99,0.00,,,0.00,Rainwise IP-100,2013-01-24 13:00:00,
2013-01-24 07:05:00,51.8,52.0,28.74,SSE,157,1.4,-999.0,99,0.00,,,0.00,Rainwise IP-100,2013-01-24 13:05:00,
2013-01-24 07:10:00,51.8,52.0,28.74,SSE,157,1.9,-999.0,99,0.00,,,0.00,Rainwise IP-100,2013-01-24 13:10:00,
2013-01-24 07:15:00,51.7,52.0,28.74,SSE,157,0.0,-999.0,99,0.00,,,0.00,Rainwise IP-100,2013-01-24 13:15:00,
2013-01-24 07:20:00,51.6,52.0,28.74,SSE,157,0.0,-999.0,99,0.00,,,0.00,Rainwise IP-100,2013-01-24 13:20:00,
2013-01-24 07:25:00,51.4,51.0,28.74,SSE,157,0.0,-999.0,99,0.00,,,0.00,Rainwise IP-100,2013-01-24 13:25:00,
2013-01-24 07:30:00,51.2,51.0,28.74,SSE,157,1.2,-999.0,99,0.00,,,0.00,Rainwise IP-100,2013-01-24 13:30:00,
2013-01-24 07:35:00,51.1,51.0,28.74,SSE,157,1.2,-999.0,99,0.00,,,0.00,Rainwise IP-100,2013-01-24 13:35:00,
2013-01-24 07:40:00,51.1,51.0,28.74,SSE,157,1.4,-999.0,99,0.00,,,0.00,Rainwise IP-100,2013-01-24 13:40:00,
2013-01-24 07:45:00,51.3,51.0,28.74,SSE,157,1.2,-999.0,99,0.00,,,0.00,Rainwise IP-100,2013-01-24 13:45:00,
2013-01-24 07:50:00,51.5,52.0,28.74,SSE,157,1.4,-999.0,99,0.00,,,0.00,Rainwise IP-100,2013-01-24 13:50:00,
2013-01-24 07:55:00,51.5,52.0,28.75,SSE,157,0.0,-999.0,99,0.00,,,0.00,Rainwise IP-100,2013-01-24 13:55:00,
2013-01-24 08:00:00,51.7,52.0,28.75,SSE,157,0.0,-999.0,99,0.00,,,0.00,Rainwise IP-100,2013-01-24 14:00:00,
2013-01-24 08:05:00,52.1,52.0,28.75,SSE,157,0.0,-999.0,99,0.00,,,0.00,Rainwise IP-100,2013-01-24 14:05:00,
2013-01-24 08:10:00,52.6,53.0,28.75,SSE,157,1.4,-999.0,100,0.00,,,0.00,Rainwise IP-100,2013-01-24 14:10:00,
2013-01-24 08:15:00,53.0,53.0,28.75,SSE,157,1.9,-999.0,99,0.00,,,0.00,Rainwise IP-100,2013-01-24 14:15:00,
2013-01-24 08:20:00,53.3,53.5,28.75,SSE,157,0.0,-999.0,99,0.00,,,0.00,Rainwise IP-100,2013-01-24 14:20:00,
2013-01-24 08:25:00,53.4,53.0,28.75,SSE,157,1.4,-999.0,98,0.00,,,0.00,Rainwise IP-100,2013-01-24 14:25:00,
2013-01-24 08:30:00,53.6,53.0,28.75,SSE,157,2.8,-999.0,98,0.00,,,0.00,Rainwise IP-100,2013-01-24 14:30:00,
2013-01-24 08:35:00,53.9,53.5,28.75,North,360,3.5,-999.0,98,0.00,,,0.00,Rainwise IP-100,2013-01-24 14:35:00,
2013-01-24 08:40:00,54.3,54.0,28.75,North,360,2.6,-999.0,97,0.00,,,0.00,Rainwise IP-100,2013-01-24 14:40:00,
2013-01-24 08:45:00,54.8,54.0,28.76,South,180,2.3,-999.0,96,0.00,,,0.00,Rainwise IP-100,2013-01-24 14:45:00,
2013-01-24 08:50:00,55.1,54.0,28.75,SSE,157,0.0,-999.0,96,0.00,,,0.00,Rainwise IP-100,2013-01-24 14:50:00,
2013-01-24 08:55:00,55.5,54.5,28.75,North,360,2.1,-999.0,96,0.00,,,0.00,Rainwise IP-100,2013-01-24 14:55:00,
2013-01-24 09:00:00,56.0,54.5,28.75,SSE,157,2.8,-999.0,95,0.00,,,0.00,Rainwise IP-100,2013-01-24 15:00:00,
2013-01-24 09:05:00,56.6,54.5,28.76,SE,135,5.1,-999.0,94,0.00,,,0.00,Rainwise IP-100,2013-01-24 15:05:00,
2013-01-24 09:10:00,57.1,55.0,28.75,SSE,157,2.6,-999.0,93,0.00,,,0.00,Rainwise IP-100,2013-01-24 15:10:00,
2013-01-24 09:15:00,57.7,55.0,28.76,SSW,202,4.4,-999.0,92,0.00,,,0.00,Rainwise IP-100,2013-01-24 15:15:00,
2013-01-24 09:20:00,58.3,56.0,28.76,SSE,157,5.4,-999.0,92,0.00,,,0.00,Rainwise IP-100,2013-01-24 15:20:00,
2013-01-24 09:25:00,58.7,56.5,28.76,South,180,4.2,-999.0,91,0.00,,,0.00,Rainwise IP-100,2013-01-24 15:25:00,
2013-01-24 09:30:00,58.9,56.0,28.75,SSE,157,3.5,-999.0,90,0.00,,,0.00,Rainwise IP-100,2013-01-24 15:30:00,
2013-01-24 09:35:00,59.3,56.0,28.76,SE,135,4.9,-999.0,89,0.00,,,0.00,Rainwise IP-100,2013-01-24 15:35:00,
2013-01-24 09:40:00,59.9,56.0,28.76,SSW,202,2.8,-999.0,87,0.00,,,0.00,Rainwise IP-100,2013-01-24 15:40:00,
2013-01-24 09:45:00,60.4,56.5,28.75,SSE,157,2.8,-999.0,86,0.00,,,0.00,Rainwise IP-100,2013-01-24 15:45:00,
2013-01-24 09:50:00,61.0,56.5,28.75,SE,135,6.5,-999.0,85,0.00,,,0.00,Rainwise IP-100,2013-01-24 15:50:00,
2013-01-24 09:55:00,61.3,56.5,28.75,SSE,157,5.8,-999.0,84,0.00,,,0.00,Rainwise IP-100,2013-01-24 15:55:00,
2013-01-24 10:00:00,61.5,56.5,28.76,South,180,5.4,-999.0,83,0.00,,,0.00,Rainwise IP-100,2013-01-24 16:00:00,
2013-01-24 10:05:00,62.1,56.5,28.76,SSE,157,3.7,-999.0,82,0.00,,,0.00,Rainwise IP-100,2013-01-24 16:05:00,
2013-01-24 10:10:00,62.5,56.5,28.76,SSW,202,4.4,-999.0,81,0.00,,,0.00,Rainwise IP-100,2013-01-24 16:10:00,
2013-01-24 10:15:00,62.7,56.5,28.76,SSW,202,1.6,-999.0,80,0.00,,,0.00,Rainwise IP-100,2013-01-24 16:15:00,
2013-01-24 10:20:00,63.0,56.5,28.75,SSE,157,2.6,-999.0,80,0.00,,,0.00,Rainwise IP-100,2013-01-24 16:20:00,
2013-01-24 10:25:00,63.3,57.0,28.75,South,180,2.8,-999.0,79,0.00,,,0.00,Rainwise IP-100,2013-01-24 16:25:00,
2013-01-24 10:30:00,63.4,57.0,28.76,SSE,157,7.0,-999.0,79,0.00,,,0.00,Rainwise IP-100,2013-01-24 16:30:00,
2013-01-24 10:35:00,63.8,57.0,28.76,WSW,247,3.7,-999.0,78,0.00,,,0.00,Rainwise IP-100,2013-01-24 16:35:00,
2013-01-24 10:40:00,64.1,57.0,28.76,SW,225,6.8,-999.0,78,0.00,,,0.00,Rainwise IP-100,2013-01-24 16:40:00,
2013-01-24 10:45:00,64.5,57.0,28.75,SSW,202,1.6,-999.0,77,0.00,,,0.00,Rainwise IP-100,2013-01-24 16:45:00,
2013-01-24 10:50:00,65.2,57.5,28.75,South,180,2.8,-999.0,77,0.00,,,0.00,Rainwise IP-100,2013-01-24 16:50:00,
2013-01-24 10:55:00,65.8,57.5,28.75,SSE,157,3.3,-999.0,75,0.00,,,0.00,Rainwise IP-100,2013-01-24 16:55:00,
2013-01-24 11:00:00,66.2,57.5,28.75,SSW,202,4.7,-999.0,74,0.00,,,0.00,Rainwise IP-100,2013-01-24 17:00:00,
2013-01-24 11:05:00,66.7,57.5,28.75,SSE,157,5.1,-999.0,73,0.00,,,0.00,Rainwise IP-100,2013-01-24 17:05:00,
2013-01-24 11:10:00,67.6,58.0,28.74,SSW,202,2.1,-999.0,72,0.00,,,0.00,Rainwise IP-100,2013-01-24 17:10:00,
2013-01-24 11:15:00,68.6,58.0,28.74,South,180,5.1,-999.0,70,0.00,,,0.00,Rainwise IP-100,2013-01-24 17:15:00,
2013-01-24 11:20:00,69.3,58.0,28.74,SE,135,9.8,-999.0,68,0.00,,,0.00,Rainwise IP-100,2013-01-24 17:20:00,
2013-01-24 11:25:00,69.7,57.5,28.74,SSW,202,3.3,-999.0,66,0.00,,,0.00,Rainwise IP-100,2013-01-24 17:25:00,
2013-01-24 11:30:00,69.8,57.0,28.74,SSW,202,1.9,-999.0,65,0.00,,,0.00,Rainwise IP-100,2013-01-24 17:30:00,
2013-01-24 11:35:00,69.9,57.5,28.74,SE,135,4.0,-999.0,65,0.00,,,0.00,Rainwise IP-100,2013-01-24 17:35:00,
2013-01-24 11:40:00,70.6,57.5,28.74,SSW,202,7.9,-999.0,64,0.00,,,0.00,Rainwise IP-100,2013-01-24 17:40:00,
2013-01-24 11:45:00,71.1,57.5,28.74,SSW,202,4.9,-999.0,63,0.00,,,0.00,Rainwise IP-100,2013-01-24 17:45:00,
2013-01-24 11:50:00,71.7,57.5,28.72,SSW,202,5.1,-999.0,61,0.00,,,0.00,Rainwise IP-100,2013-01-24 17:50:00,
2013-01-24 11:55:00,72.6,57.5,28.72,SSW,202,8.9,-999.0,59,0.00,,,0.00,Rainwise IP-100,2013-01-24 17:55:00,
2013-01-24 12:00:00,73.1,56.5,28.73,SW,225,6.8,-999.0,56,0.00,,,0.00,Rainwise IP-100,2013-01-24 18:00:00,
2013-01-24 12:05:00,73.6,56.0,28.72,South,180,4.7,-999.0,54,0.00,,,0.00,Rainwise IP-100,2013-01-24 18:05:00,
2013-01-24 12:10:00,74.5,56.0,28.72,SSW,202,11.7,-999.0,52,0.00,,,0.00,Rainwise IP-100,2013-01-24 18:10:00,
2013-01-24 12:15:00,74.9,55.0,28.71,WSW,247,3.0,-999.0,50,0.00,,,0.00,Rainwise IP-100,2013-01-24 18:15:00,
2013-01-24 12:20:00,74.9,54.5,28.72,West,270,5.1,-999.0,49,0.00,,,0.00,Rainwise IP-100,2013-01-24 18:20:00,
2013-01-24 12:25:00,75.3,55.0,28.71,WSW,247,10.7,-999.0,49,0.00,,,0.00,Rainwise IP-100,2013-01-24 18:25:00,
2013-01-24 12:30:00,75.5,54.5,28.71,WSW,247,8.4,-999.0,48,0.00,,,0.00,Rainwise IP-100,2013-01-24 18:30:00,
2013-01-24 12:35:00,75.9,54.0,28.71,WSW,247,6.3,-999.0,47,0.00,,,0.00,Rainwise IP-100,2013-01-24 18:35:00,
2013-01-24 12:40:00,76.2,54.5,28.70,WSW,247,8.4,-999.0,47,0.00,,,0.00,Rainwise IP-100,2013-01-24 18:40:00,
2013-01-24 12:45:00,76.3,54.0,28.69,SW,225,8.9,-999.0,46,0.00,,,0.00,Rainwise IP-100,2013-01-24 18:45:00,
2013-01-24 12:50:00,76.3,54.0,28.69,WSW,247,9.3,-999.0,46,0.00,,,0.00,Rainwise IP-100,2013-01-24 18:50:00,
2013-01-24 12:55:00,76.6,53.5,28.69,SW,225,8.2,-999.0,45,0.00,,,0.00,Rainwise IP-100,2013-01-24 18:55:00,
2013-01-24 13:00:00,77.0,54.0,28.68,WSW,247,0.0,-999.0,45,0.00,,,0.00,Rainwise IP-100,2013-01-24 19:00:00,
2013-01-24 13:05:00,77.2,54.0,28.68,WSW,247,6.1,-999.0,44,0.00,,,0.00,Rainwise IP-100,2013-01-24 19:05:00,
2013-01-24 13:10:00,77.7,53.5,28.67,SSE,157,9.1,-999.0,43,0.00,,,0.00,Rainwise IP-100,2013-01-24 19:10:00,
2013-01-24 13:15:00,77.9,53.5,28.67,SSW,202,7.5,-999.0,42,0.00,,,0.00,Rainwise IP-100,2013-01-24 19:15:00,
2013-01-24 13:20:00,78.1,53.5,28.67,SSW,202,5.8,-999.0,42,0.00,,,0.00,Rainwise IP-100,2013-01-24 19:20:00,
2013-01-24 13:25:00,78.1,53.0,28.67,South,180,2.3,-999.0,41,0.00,,,0.00,Rainwise IP-100,2013-01-24 19:25:00,
2013-01-24 13:31:00,78.2,53.0,28.67,SSW,202,5.8,-999.0,41,0.00,,,0.00,Rainwise IP-100,2013-01-24 19:31:00,
2013-01-24 13:36:00,78.4,53.0,28.67,WNW,292,5.8,-999.0,41,0.00,,,0.00,Rainwise IP-100,2013-01-24 19:36:00,
2013-01-24 13:41:00,78.5,53.0,28.66,WNW,292,7.0,-999.0,40,0.00,,,0.00,Rainwise IP-100,2013-01-24 19:41:00,
2013-01-24 13:46:00,78.8,53.0,28.66,SW,225,6.3,-999.0,40,0.00,,,0.00,Rainwise IP-100,2013-01-24 19:46:00,
2013-01-24 13:52:00,79.3,52.0,28.65,SSW,202,6.3,-999.0,39,0.00,,,0.00,Rainwise IP-100,2013-01-24 19:52:00,
2013-01-24 13:57:00,79.7,52.0,28.65,SSW,202,4.9,-999.0,38,0.00,,,0.00,Rainwise IP-100,2013-01-24 19:57:00,
2013-01-24 14:02:00,80.3,51.0,28.64,SW,225,3.3,-999.0,37,0.00,,,0.00,Rainwise IP-100,2013-01-24 20:02:00,
2013-01-24 14:07:00,80.9,53.0,28.64,SW,225,7.5,-999.0,37,0.00,,,0.00,Rainwise IP-100,2013-01-24 20:07:00,
2013-01-24 14:12:00,81.0,53.0,28.63,SSW,202,3.3,-999.0,37,0.00,,,0.00,Rainwise IP-100,2013-01-24 20:12:00,
2013-01-24 14:17:00,81.0,52.0,28.63,WSW,247,6.1,-999.0,36,0.00,,,0.00,Rainwise IP-100,2013-01-24 20:17:00,
2013-01-24 14:22:00,81.0,52.0,28.63,SSE,157,6.5,-999.0,36,0.00,,,0.00,Rainwise IP-100,2013-01-24 20:22:00,
2013-01-24 14:27:00,81.1,50.5,28.63,South,180,10.5,-999.0,35,0.00,,,0.00,Rainwise IP-100,2013-01-24 20:27:00,
2013-01-24 14:32:00,81.2,51.0,28.63,SW,225,3.7,-999.0,35,0.00,,,0.00,Rainwise IP-100,2013-01-24 20:32:00,
2013-01-24 14:37:00,81.4,50.5,28.63,SW,225,5.4,-999.0,34,0.00,,,0.00,Rainwise IP-100,2013-01-24 20:37:00,
2013-01-24 14:42:00,81.6,50.5,28.62,SSE,157,13.1,-999.0,34,0.00,,,0.00,Rainwise IP-100,2013-01-24 20:42:00,
2013-01-24 14:47:00,81.7,50.0,28.62,SSW,202,2.3,-999.0,33,0.00,,,0.00,Rainwise IP-100,2013-01-24 20:47:00,
2013-01-24 14:52:00,81.9,50.0,28.62,SSW,202,4.7,-999.0,33,0.00,,,0.00,Rainwise IP-100,2013-01-24 20:52:00,
2013-01-24 14:57:00,82.1,49.0,28.62,WSW,247,10.0,-999.0,32,0.00,,,0.00,Rainwise IP-100,2013-01-24 20:57:00,
2013-01-24 15:02:00,82.2,50.0,28.61,South,180,2.6,-999.0,32,0.00,,,0.00,Rainwise IP-100,2013-01-24 21:02:00,
2013-01-24 15:07:00,82.5,49.0,28.61,WSW,247,9.3,-999.0,31,0.00,,,0.00,Rainwise IP-100,2013-01-24 21:07:00,
2013-01-24 15:12:00,82.5,48.0,28.61,SSW,202,10.7,-999.0,30,0.00,,,0.00,Rainwise IP-100,2013-01-24 21:12:00,
2013-01-24 15:17:00,82.4,48.0,28.62,SSW,202,2.3,-999.0,30,0.00,,,0.00,Rainwise IP-100,2013-01-24 21:17:00,
2013-01-24 15:22:00,82.6,48.0,28.61,WSW,247,4.2,-999.0,30,0.00,,,0.00,Rainwise IP-100,2013-01-24 21:22:00,
2013-01-24 15:27:00,82.8,48.0,28.61,SSW,202,4.0,-999.0,30,0.00,,,0.00,Rainwise IP-100,2013-01-24 21:27:00,
2013-01-24 15:32:00,82.8,48.0,28.61,WSW,247,4.9,-999.0,30,0.00,,,0.00,Rainwise IP-100,2013-01-24 21:32:00,
2013-01-24 15:37:00,82.7,48.0,28.61,SSW,202,5.1,-999.0,30,0.00,,,0.00,Rainwise IP-100,2013-01-24 21:37:00,
2013-01-24 15:42:00,82.6,48.0,28.60,SSE,157,5.6,-999.0,30,0.00,,,0.00,Rainwise IP-100,2013-01-24 21:42:00,
2013-01-24 15:47:00,82.6,48.0,28.61,SSW,202,7.7,-999.0,30,0.00,,,0.00,Rainwise IP-100,2013-01-24 21:47:00,
2013-01-24 15:52:00,82.5,48.0,28.61,SW,225,6.5,-999.0,30,0.00,,,0.00,Rainwise IP-100,2013-01-24 21:52:00,
2013-01-24 15:57:00,82.5,48.0,28.60,SSE,157,9.6,-999.0,30,0.00,,,0.00,Rainwise IP-100,2013-01-24 21:57:00,
2013-01-24 16:02:00,82.8,47.5,28.60,SSE,157,4.9,-999.0,29,0.00,,,0.00,Rainwise IP-100,2013-01-24 22:02:00,
2013-01-24 16:07:00,83.0,47.0,28.60,South,180,6.8,-999.0,28,0.00,,,0.00,Rainwise IP-100,2013-01-24 22:07:00,
2013-01-24 16:12:00,83.0,47.0,28.60,SSE,157,10.7,-999.0,28,0.00,,,0.00,Rainwise IP-100,2013-01-24 22:12:00,
2013-01-24 16:17:00,83.0,47.0,28.60,SSW,202,5.1,-999.0,28,0.00,,,0.00,Rainwise IP-100,2013-01-24 22:17:00,
2013-01-24 16:22:00,83.1,47.0,28.59,South,180,4.2,-999.0,28,0.00,,,0.00,Rainwise IP-100,2013-01-24 22:22:00,
2013-01-24 16:27:00,83.1,46.0,28.60,SSW,202,6.8,-999.0,27,0.00,,,0.00,Rainwise IP-100,2013-01-24 22:27:00,
2013-01-24 16:32:00,83.0,46.0,28.60,South,180,3.3,-999.0,27,0.00,,,0.00,Rainwise IP-100,2013-01-24 22:32:00,
2013-01-24 16:37:00,83.0,45.0,28.60,SSW,202,5.6,-999.0,26,0.00,,,0.00,Rainwise IP-100,2013-01-24 22:37:00,
2013-01-24 16:42:00,83.0,45.0,28.60,SSW,202,7.7,-999.0,26,0.00,,,0.00,Rainwise IP-100,2013-01-24 22:42:00,
2013-01-24 16:47:00,82.9,45.0,28.60,SSW,202,4.9,-999.0,26,0.00,,,0.00,Rainwise IP-100,2013-01-24 22:47:00,
2013-01-24 16:52:00,82.7,44.0,28.60,SSW,202,6.3,-999.0,26,0.00,,,0.00,Rainwise IP-100,2013-01-24 22:52:00,
2013-01-24 16:57:00,82.5,43.0,28.60,SSE,157,3.7,-999.0,25,0.00,,,0.00,Rainwise IP-100,2013-01-24 22:57:00,
2013-01-24 17:02:00,82.5,43.0,28.60,South,180,4.4,-999.0,25,0.00,,,0.00,Rainwise IP-100,2013-01-24 23:02:00,
2013-01-24 17:07:00,82.4,43.0,28.59,SSW,202,4.2,-999.0,25,0.00,,,0.00,Rainwise IP-100,2013-01-24 23:07:00,
2013-01-24 17:12:00,82.2,43.0,28.59,SSW,202,3.5,-999.0,25,0.00,,,0.00,Rainwise IP-100,2013-01-24 23:12:00,
2013-01-24 17:17:00,82.1,43.0,28.59,SW,225,4.9,-999.0,25,0.00,,,0.00,Rainwise IP-100,2013-01-24 23:17:00,
2013-01-24 17:22:00,81.8,43.0,28.59,SSW,202,5.6,-999.0,26,0.00,,,0.00,Rainwise IP-100,2013-01-24 23:22:00,
2013-01-24 17:27:00,81.4,43.0,28.59,South,180,7.7,-999.0,26,0.00,,,0.00,Rainwise IP-100,2013-01-24 23:27:00,
2013-01-24 17:32:00,81.1,43.0,28.59,South,180,3.7,-999.0,26,0.00,,,0.00,Rainwise IP-100,2013-01-24 23:32:00,
2013-01-24 17:37:00,80.8,44.0,28.59,SSW,202,2.8,-999.0,27,0.00,,,0.00,Rainwise IP-100,2013-01-24 23:37:00,
2013-01-24 17:42:00,80.5,43.0,28.59,SSW,202,2.3,-999.0,27,0.00,,,0.00,Rainwise IP-100,2013-01-24 23:42:00,
2013-01-24 17:47:00,80.1,43.0,28.59,SSW,202,4.2,-999.0,27,0.00,,,0.00,Rainwise IP-100,2013-01-24 23:47:00,
2013-01-24 17:52:00,79.5,43.0,28.59,SSE,157,3.5,-999.0,27,0.00,,,0.00,Rainwise IP-100,2013-01-24 23:52:00,
2013-01-24 17:57:00,78.8,43.0,28.59,South,180,1.6,-999.0,28,0.00,,,0.00,Rainwise IP-100,2013-01-24 23:57:00,
2013-01-24 18:02:00,78.2,42.0,28.59,SSE,157,2.1,-999.0,28,0.00,,,0.00,Rainwise IP-100,2013-01-25 00:02:00,
2013-01-24 18:07:00,77.7,43.0,28.59,SSW,202,1.6,-999.0,29,0.00,,,0.00,Rainwise IP-100,2013-01-25 00:07:00,
2013-01-24 18:12:00,77.2,43.0,28.59,SSE,157,1.2,-999.0,29,0.00,,,0.00,Rainwise IP-100,2013-01-25 00:12:00,
2013-01-24 18:17:00,76.5,43.0,28.60,SSE,157,1.6,-999.0,30,0.00,,,0.00,Rainwise IP-100,2013-01-25 00:17:00,
2013-01-24 18:22:00,76.0,43.0,28.60,SSE,157,2.1,-999.0,31,0.00,,,0.00,Rainwise IP-100,2013-01-25 00:22:00,
2013-01-24 18:27:00,75.5,43.0,28.60,SSE,157,1.9,-999.0,31,0.00,,,0.00,Rainwise IP-100,2013-01-25 00:27:00,
2013-01-24 18:32:00,75.0,43.0,28.60,SSE,157,1.2,-999.0,32,0.00,,,0.00,Rainwise IP-100,2013-01-25 00:32:00,
2013-01-24 18:37:00,74.5,43.0,28.60,SE,135,2.1,-999.0,32,0.00,,,0.00,Rainwise IP-100,2013-01-25 00:37:00,
2013-01-24 18:42:00,74.1,43.0,28.60,SSE,157,2.3,-999.0,33,0.00,,,0.00,Rainwise IP-100,2013-01-25 00:42:00,
2013-01-24 18:47:00,73.7,43.0,28.60,SSE,157,2.1,-999.0,33,0.00,,,0.00,Rainwise IP-100,2013-01-25 00:47:00,
2013-01-24 18:52:00,73.4,43.0,28.60,SE,135,2.6,-999.0,34,0.00,,,0.00,Rainwise IP-100,2013-01-25 00:52:00,
2013-01-24 18:57:00,73.2,43.0,28.60,SSE,157,2.1,-999.0,34,0.00,,,0.00,Rainwise IP-100,2013-01-25 00:57:00,
2013-01-24 19:02:00,72.9,43.0,28.60,SE,135,2.3,-999.0,34,0.00,,,0.00,Rainwise IP-100,2013-01-25 01:02:00,
2013-01-24 19:07:00,72.5,43.0,28.60,SSE,157,2.3,-999.0,34,0.00,,,0.00,Rainwise IP-100,2013-01-25 01:07:00,
2013-01-24 19:12:00,72.3,43.0,28.60,SE,135,2.8,-999.0,35,0.00,,,0.00,Rainwise IP-100,2013-01-25 01:12:00,
2013-01-24 19:17:00,72.0,43.0,28.61,SSE,157,1.4,-999.0,35,0.00,,,0.00,Rainwise IP-100,2013-01-25 01:17:00,
2013-01-24 19:22:00,71.6,42.0,28.61,SE,135,1.6,-999.0,35,0.00,,,0.00,Rainwise IP-100,2013-01-25 01:22:00,
2013-01-24 19:27:00,71.3,42.0,28.60,SE,135,1.2,-999.0,35,0.00,,,0.00,Rainwise IP-100,2013-01-25 01:27:00,
2013-01-24 19:32:00,70.9,42.0,28.61,SSE,157,1.9,-999.0,36,0.00,,,0.00,Rainwise IP-100,2013-01-25 01:32:00,
2013-01-24 19:37:00,70.7,42.0,28.61,SSE,157,0.0,-999.0,36,0.00,,,0.00,Rainwise IP-100,2013-01-25 01:37:00,
2013-01-24 19:42:00,70.5,42.0,28.61,SSE,157,1.2,-999.0,36,0.00,,,0.00,Rainwise IP-100,2013-01-25 01:42:00,
2013-01-24 19:47:00,70.3,43.0,28.61,SSE,157,4.0,-999.0,37,0.00,,,0.00,Rainwise IP-100,2013-01-25 01:47:00,
2013-01-24 19:52:00,70.0,42.0,28.61,SSE,157,2.8,-999.0,37,0.00,,,0.00,Rainwise IP-100,2013-01-25 01:52:00,
2013-01-24 19:57:00,69.6,42.0,28.61,SSE,157,2.1,-999.0,37,0.00,,,0.00,Rainwise IP-100,2013-01-25 01:57:00,
2013-01-24 20:02:00,69.4,42.0,28.61,South,180,4.4,-999.0,38,0.00,,,0.00,Rainwise IP-100,2013-01-25 02:02:00,
2013-01-24 20:07:00,69.3,44.0,28.61,SSW,202,4.7,-999.0,40,0.00,,,0.00,Rainwise IP-100,2013-01-25 02:07:00,
2013-01-24 20:12:00,69.4,45.0,28.61,South,180,4.2,-999.0,41,0.00,,,0.00,Rainwise IP-100,2013-01-25 02:12:00,
2013-01-24 20:17:00,69.5,46.0,28.62,South,180,5.1,-999.0,43,0.00,,,0.00,Rainwise IP-100,2013-01-25 02:17:00,
2013-01-24 20:22:00,69.7,47.0,28.62,SSW,202,2.3,-999.0,44,0.00,,,0.00,Rainwise IP-100,2013-01-25 02:22:00,
2013-01-24 20:27:00,69.8,48.0,28.62,South,180,4.7,-999.0,46,0.00,,,0.00,Rainwise IP-100,2013-01-25 02:27:00,
2013-01-24 20:32:00,69.8,48.0,28.62,SSE,157,4.0,-999.0,47,0.00,,,0.00,Rainwise IP-100,2013-01-25 02:32:00,
2013-01-24 20:37:00,69.7,49.0,28.62,South,180,5.6,-999.0,48,0.00,,,0.00,Rainwise IP-100,2013-01-25 02:37:00,
2013-01-24 20:42:00,69.6,50.5,28.62,South,180,7.9,-999.0,50,0.00,,,0.00,Rainwise IP-100,2013-01-25 02:42:00,
2013-01-24 20:47:00,69.6,50.5,28.62,SSE,157,6.1,-999.0,50,0.00,,,0.00,Rainwise IP-100,2013-01-25 02:47:00,
2013-01-24 20:52:00,69.7,50.5,28.61,South,180,10.3,-999.0,51,0.00,,,0.00,Rainwise IP-100,2013-01-25 02:52:00,
2013-01-24 20:57:00,69.5,51.0,28.62,SSW,202,4.7,-999.0,52,0.00,,,0.00,Rainwise IP-100,2013-01-25 02:57:00,
2013-01-24 21:02:00,69.3,51.0,28.61,South,180,7.7,-999.0,53,0.00,,,0.00,Rainwise IP-100,2013-01-25 03:02:00,
2013-01-24 21:07:00,69.2,51.0,28.61,South,180,5.1,-999.0,53,0.00,,,0.00,Rainwise IP-100,2013-01-25 03:07:00,
2013-01-24 21:12:00,69.0,51.0,28.62,South,180,5.4,-999.0,54,0.00,,,0.00,Rainwise IP-100,2013-01-25 03:12:00,
2013-01-24 21:17:00,68.9,51.0,28.62,South,180,5.4,-999.0,54,0.00,,,0.00,Rainwise IP-100,2013-01-25 03:17:00,
2013-01-24 21:22:00,68.7,52.0,28.62,SSW,202,8.2,-999.0,55,0.00,,,0.00,Rainwise IP-100,2013-01-25 03:22:00,
2013-01-24 21:27:00,68.6,52.0,28.62,SSW,202,5.8,-999.0,55,0.00,,,0.00,Rainwise IP-100,2013-01-25 03:27:00,
2013-01-24 21:32:00,68.4,52.0,28.62,SSW,202,4.9,-999.0,56,0.00,,,0.00,Rainwise IP-100,2013-01-25 03:32:00,
2013-01-24 21:37:00,68.2,52.0,28.62,South,180,9.6,-999.0,56,0.00,,,0.00,Rainwise IP-100,2013-01-25 03:37:00,
2013-01-24 21:42:00,68.1,52.0,28.62,South,180,7.0,-999.0,57,0.00,,,0.00,Rainwise IP-100,2013-01-25 03:42:00,
2013-01-24 21:47:00,67.8,52.0,28.62,South,180,6.1,-999.0,57,0.00,,,0.00,Rainwise IP-100,2013-01-25 03:47:00,
2013-01-24 21:52:00,67.5,52.0,28.62,SSE,157,6.3,-999.0,58,0.00,,,0.00,Rainwise IP-100,2013-01-25 03:52:00,
2013-01-24 21:57:00,67.1,53.0,28.62,SSW,202,2.1,-999.0,59,0.00,,,0.00,Rainwise IP-100,2013-01-25 03:57:00,
2013-01-24 22:02:00,66.8,52.0,28.63,SSW,202,2.8,-999.0,59,0.00,,,0.00,Rainwise IP-100,2013-01-25 04:02:00,
2013-01-24 22:07:00,66.5,53.0,28.63,SSE,157,6.5,-999.0,60,0.00,,,0.00,Rainwise IP-100,2013-01-25 04:07:00,
2013-01-24 22:12:00,66.4,53.0,28.63,SSW,202,3.3,-999.0,61,0.00,,,0.00,Rainwise IP-100,2013-01-25 04:12:00,
2013-01-24 22:17:00,66.1,52.0,28.63,SSE,157,7.5,-999.0,61,0.00,,,0.00,Rainwise IP-100,2013-01-25 04:17:00,
2013-01-24 22:22:00,65.8,53.0,28.63,SSW,202,2.8,-999.0,62,0.00,,,0.00,Rainwise IP-100,2013-01-25 04:22:00,
2013-01-24 22:27:00,65.7,52.0,28.63,South,180,6.1,-999.0,62,0.00,,,0.00,Rainwise IP-100,2013-01-25 04:27:00,
2013-01-24 22:32:00,65.7,53.0,28.64,SSE,157,3.3,-999.0,63,0.00,,,0.00,Rainwise IP-100,2013-01-25 04:32:00,
2013-01-24 22:37:00,65.8,53.0,28.63,SSE,157,4.7,-999.0,63,0.00,,,0.00,Rainwise IP-100,2013-01-25 04:37:00,
2013-01-24 22:42:00,65.8,53.0,28.63,SSE,157,4.4,-999.0,63,0.00,,,0.00,Rainwise IP-100,2013-01-25 04:42:00,
2013-01-24 22:47:00,65.7,53.0,28.63,South,180,4.9,-999.0,64,0.00,,,0.00,Rainwise IP-100,2013-01-25 04:47:00,
2013-01-24 22:52:00,65.7,53.0,28.63,SSW,202,4.7,-999.0,64,0.00,,,0.00,Rainwise IP-100,2013-01-25 04:52:00,
2013-01-24 22:57:00,65.7,53.5,28.63,South,180,5.8,-999.0,65,0.00,,,0.00,Rainwise IP-100,2013-01-25 04:57:00,
2013-01-24 23:00:00,65.7,53.5,28.63,SSW,202,6.3,-999.0,65,0.00,,,0.00,Rainwise IP-100,2013-01-25 05:00:00,
2013-01-24 23:05:00,65.7,54.0,28.63,SSW,202,3.3,-999.0,66,0.00,,,0.00,Rainwise IP-100,2013-01-25 05:05:00,
2013-01-24 23:10:00,65.6,54.0,28.63,SSW,202,2.6,-999.0,66,0.00,,,0.00,Rainwise IP-100,2013-01-25 05:10:00,
2013-01-24 23:15:00,65.5,54.0,28.63,SSW,202,7.0,-999.0,67,0.00,,,0.00,Rainwise IP-100,2013-01-25 05:15:00,
2013-01-24 23:20:00,65.5,54.0,28.64,SSW,202,3.5,-999.0,67,0.00,,,0.00,Rainwise IP-100,2013-01-25 05:20:00,
2013-01-24 23:25:00,65.4,54.5,28.63,South,180,5.1,-999.0,68,0.00,,,0.00,Rainwise IP-100,2013-01-25 05:25:00,
2013-01-24 23:30:00,65.3,54.5,28.63,South,180,4.0,-999.0,68,0.00,,,0.00,Rainwise IP-100,2013-01-25 05:30:00,
2013-01-24 23:35:00,65.2,54.5,28.64,SW,225,2.3,-999.0,69,0.00,,,0.00,Rainwise IP-100,2013-01-25 05:35:00,
2013-01-24 23:40:00,65.0,54.5,28.63,SSW,202,2.8,-999.0,69,0.00,,,0.00,Rainwise IP-100,2013-01-25 05:40:00,
2013-01-24 23:45:00,64.8,54.5,28.63,South,180,4.0,-999.0,70,0.00,,,0.00,Rainwise IP-100,2013-01-25 05:45:00,
2013-01-24 23:50:00,64.7,54.5,28.63,SSE,157,4.4,-999.0,70,0.00,,,0.00,Rainwise IP-100,2013-01-25 05:50:00,
2013-01-24 23:55:00,64.6,54.5,28.63,SSW,202,5.8,-999.0,71,0.00,,,0.00,Rainwise IP-100,2013-01-25 05:55:00,